Location: Biltmore Gardens
(41.6070°N, 83.4666°W)
Time: 15:31:31
(UTC+00:00)

Vanguard 1 Rocket - All Passes

Search period start: 11 April 2021 00:00
Search period end: 21 April 2021 00:00
Orbit: 653 x 4223 km, 34.3° (Epoch: 10 April)

Date Brightness Start Highest point End Pass type
(mag) Time Alt. Az. Time Alt. Az. Time Alt. Az.
11 Apr - 00:06:32 10° WSW 00:11:41 45° S 00:20:24 10° ESE daylight
11 Apr - 02:30:40 10° WSW 02:37:26 31° SSW 02:48:53 10° SE visible
11 Apr - 04:59:21 10° SW 05:04:47 14° SSW 05:11:35 10° S visible
11 Apr - 20:33:39 10° SSW 20:36:47 19° SSE 20:40:08 10° ESE daylight
11 Apr - 22:56:22 10° WSW 23:00:50 41° S 23:07:32 10° ESE daylight
12 Apr - 01:20:04 10° WSW 01:25:52 36° SSW 01:35:49 10° SE visible
12 Apr - 03:45:58 10° WSW 03:52:24 19° SSW 04:01:42 10° SSE visible
12 Apr - 19:25:06 10° SSE 19:26:12 11° SSE 19:27:18 10° SE daylight
12 Apr - 21:46:13 10° SW 21:50:12 33° SSE 21:55:16 10° ESE daylight
13 Apr - 00:09:44 10° WSW 00:14:43 39° S 00:22:50 10° ESE daylight
13 Apr - 02:34:21 10° WSW 02:40:27 24° SSW 02:49:58 10° SSE visible
13 Apr - 20:36:05 10° SW 20:39:41 24° SSE 20:43:28 10° ESE daylight
13 Apr - 22:59:27 10° WSW 23:03:51 40° S 23:10:15 10° ESE daylight
14 Apr - 01:23:30 10° WSW 01:28:54 29° SSW 01:37:36 10° SE visible
14 Apr - 03:51:22 10° SW 03:55:25 13° SSW 04:00:24 10° S visible
14 Apr - 19:26:11 10° SSW 19:29:06 16° SSE 19:31:49 10° ESE daylight
14 Apr - 21:49:09 10° WSW 21:53:12 36° S 21:58:12 10° ESE daylight
15 Apr - 00:13:00 10° WSW 00:17:44 33° S 00:25:07 10° SE daylight
15 Apr - 02:38:31 10° WSW 02:43:30 17° SSW 02:50:27 10° SSE visible
15 Apr - 18:17:59 10° SSE 18:18:18 10° SSE 18:18:38 10° SSE daylight
15 Apr - 20:38:44 10° SW 20:42:38 28° SSE 20:46:39 10° ESE daylight
15 Apr - 23:02:37 10° WSW 23:06:53 36° S 23:12:53 10° ESE daylight
16 Apr - 01:27:10 10° WSW 01:31:57 22° SSW 01:39:02 10° SSE visible
16 Apr - 19:28:14 10° SSW 19:32:03 21° SSE 19:35:26 10° ESE daylight
16 Apr - 21:52:10 10° WSW 21:56:12 36° S 22:01:05 10° ESE daylight
17 Apr - 00:16:24 10° WSW 00:20:47 26° SSW 00:27:12 10° SE daylight
17 Apr - 02:44:10 10° SW 02:46:34 11° SSW 02:49:19 10° S visible
17 Apr - 18:17:53 10° SSW 18:21:17 16° SSE 18:24:08 10° ESE daylight
17 Apr - 20:41:32 10° WSW 20:45:38 32° S 20:49:45 10° ESE daylight
17 Apr - 23:05:51 10° WSW 23:09:54 30° S 23:15:25 10° SE daylight
18 Apr - 01:31:19 10° SW 01:35:01 15° SSW 01:39:52 10° SSE visible
18 Apr - 17:08:29 10° S 17:10:16 11° SSE 17:11:52 10° SE daylight
18 Apr - 19:30:38 10° SW 19:35:03 27° SSE 19:38:47 10° ESE daylight
18 Apr - 21:55:15 10° WSW 21:59:14 34° S 22:03:54 10° ESE daylight
19 Apr - 00:20:01 10° WSW 00:23:50 20° SSW 00:28:58 10° SSE daylight
19 Apr - 18:19:35 10° SSW 18:24:18 21° SSE 18:27:56 10° ESE daylight
19 Apr - 20:44:25 10° WSW 20:48:39 34° S 20:52:47 10° ESE daylight
19 Apr - 23:09:10 10° WSW 23:12:56 24° SSW 23:17:45 10° SE daylight
20 Apr - 17:08:37 10° SSW 17:13:19 17° SSE 17:16:52 10° ESE daylight
20 Apr - 19:33:14 10° SW 19:38:03 32° S 19:42:00 10° ESE daylight
20 Apr - 21:58:23 10° WSW 22:02:15 30° S 22:06:37 10° SE daylight
